GW3496 Weather Reports


time (UTC)temp
C
wind
direction
speed
KPH
gust
KPH
rain 1hr
cm
rain 24hr
cm
rain mn
cm
humidity
%
barometer
mb
20260904011543 30 145 0.0 0.0 0.00 0.00 0.00 81 1012.2
20260904010050 30 163 0.0 0.0 0.00 0.00 0.00 79 1012.7
20260904004543 30 202 0.0 0.0 0.00 0.00 0.00 78 1012.9
20260904003039 31 202 0.0 0.0 0.00 0.00 0.00 78 1013.0
20260904001543 31 234 0.0 0.0 0.00 0.00 0.00 77 1012.9
20260904000041 31 188 0.0 0.0 0.00 0.00 0.00 76 1012.5
20260903234545 31 189 0.0 8.0 0.00 0.00 0.00 76 1012.2
20260903233046 31 269 0.0 0.0 0.00 0.00 0.00 75 1012.5
20260903231539 31 228 0.0 8.0 0.00 0.00 0.00 74 1012.2
20260903230047 31 264 3.2 8.0 0.00 0.00 0.00 74 1012.3
20260903224545 32 269 4.8 12.9 0.00 0.00 0.00 72 1012.0
20260903223047 32 263 4.8 16.1 0.00 0.00 0.00 71 1011.8
20260903221549 32 227 11.3 17.7 0.00 0.00 0.00 71 1011.9
20260903220042 32 210 9.7 16.1 0.00 0.00 0.00 69 1012.2
20260903214538 32 212 9.7 14.5 0.00 0.00 0.00 69 1012.2
20260903213043 32 223 4.8 16.1 0.00 0.00 0.00 70 1012.4
20260903211547 31 157 3.2 14.5 0.00 0.00 0.00 71 1012.7
20260903210054 31 227 8.0 19.3 0.00 0.00 0.00 69 1012.7
20260903204543 31 228 8.0 14.5 0.00 0.00 0.00 69 1012.7
20260903203049 32 263 6.4 12.9 0.00 0.00 0.00 67 1012.9
20260903201542 31 213 6.4 16.1 0.00 0.00 0.00 68 1013.2
20260903200051 31 298 6.4 16.1 0.00 0.00 0.00 69 1013.4
20260903194545 31 284 1.6 12.9 0.00 0.00 0.00 70 1013.4
20260903193048 31 293 4.8 11.3 0.00 0.00 0.00 69 1014.0
20260903191542 30 247 4.8 12.9 0.00 0.00 0.00 70 1014.1
20260903190043 31 254 4.8 12.9 0.00 0.00 0.00 71 1014.0
20260903184548 30 253 6.4 12.9 0.00 0.00 0.00 72 1014.1
20260903183044 30 276 1.6 11.3 0.00 0.00 0.00 72 1014.2
20260903181542 30 319 1.6 6.4 0.00 0.00 0.00 71 1014.6
20260903180106 31 311 3.2 9.7 0.00 0.00 0.00 71 1014.7
20260903174544 30 97 1.6 6.4 0.00 0.00 0.00 71 1014.8
20260903173043 30 318 6.4 14.5 0.00 0.00 0.00 72 1015.4
20260903171549 30 301 1.6 12.9 0.00 0.00 0.00 75 1015.5
20260903170049 28 11 0.0 9.7 0.00 0.00 0.00 77 1015.9
20260903164558 28 200 3.2 12.9 0.00 0.00 0.00 77 1015.6
20260903163046 28 355 0.0 0.0 0.00 0.00 0.00 78 1015.7
20260903161543 27 186 0.0 9.7 0.00 0.00 0.00 82 1016.1
20260903160047 27 69 3.2 9.7 0.00 0.00 0.00 82 1015.9
20260903154552 26 165 0.0 8.0 0.00 0.00 0.00 87 1016.4
20260903153052 25 18 0.0 8.0 0.00 0.00 0.00 89 1016.1
20260903151553 25 360 0.0 8.0 0.00 0.00 0.00 90 1016.1
20260903150048 25 41 0.0 0.0 0.00 0.00 0.00 91 1015.8
20260903144556 25 123 3.2 6.4 0.00 0.00 0.00 92 1015.7
20260903143049 24 103 1.6 6.4 0.00 0.00 0.00 93 1015.7
20260903141549 24 70 1.6 8.0 0.00 0.00 0.00 93 1015.6
20260903140055 23 76 1.6 9.7 0.00 0.00 0.00 94 1015.8
20260903134553 23 360 6.4 12.9 0.00 0.00 0.00 94 1015.5
20260903133053 23 37 8.0 16.1 0.00 0.00 0.00 94 1015.6
20260903131551 23 28 8.0 16.1 0.00 0.00 0.00 94 1015.9
20260903130105 23 18 6.4 17.7 0.00 0.00 0.00 94 1016.0
20260903124541 23 349 9.7 17.7 0.00 0.00 0.00 94 1016.1
20260903123050 23 328 3.2 17.7 0.00 0.00 0.00 94 1016.2
20260903121548 23 28 3.2 11.3 0.00 0.00 0.00 94 1015.7
20260903120045 23 261 0.0 0.0 0.00 0.00 0.00 94 1015.3
20260903114553 23 261 0.0 0.0 0.00 0.00 0.00 94 1015.1
20260903113051 23 261 0.0 0.0 0.00 0.00 0.00 94 1014.9
20260903111559 23 261 0.0 6.4 0.00 0.00 0.00 94 1014.7
20260903110110 23 178 0.0 0.0 0.00 0.00 0.00 94 1014.4
20260903104541 23 209 0.0 3.2 0.00 0.00 0.00 94 1014.3
20260903103051 23 165 3.2 6.4 0.00 0.00 0.00 93 1014.2
20260903101552 23 182 3.2 8.0 0.00 0.00 0.00 93 1014.1
20260903100059 23 187 4.8 8.0 0.00 0.00 0.00 93 1014.0
20260903094555 23 113 0.0 0.0 0.00 0.00 0.00 93 1014.3
20260903093049 23 90 0.0 3.2 0.00 0.00 0.00 93 1014.5
20260903091554 23 130 0.0 0.0 0.00 0.00 0.00 93 1014.4
20260903090053 23 320 0.0 0.0 0.00 0.00 0.00 93 1014.4
20260903084552 23 44 0.0 3.2 0.00 0.00 0.00 92 1014.3
20260903083048 23 145 3.2 6.4 0.00 0.00 0.00 92 1014.1
20260903081557 23 113 1.6 8.0 0.00 0.00 0.00 92 1014.2
20260903080054 23 157 0.0 0.0 0.00 0.00 0.00 92 1013.8
20260903074605 23 117 0.0 3.2 0.00 0.00 0.00 92 1014.3
20260903073050 23 209 3.2 8.0 0.00 0.00 0.00 91 1013.8
20260903071557 23 125 3.2 9.7 0.00 0.00 0.00 91 1013.8
20260903070056 23 155 3.2 9.7 0.00 0.00 0.00 90 1013.8
20260903064603 23 170 4.8 6.4 0.00 0.00 0.00 90 1014.0
20260903063050 23 133 0.0 0.0 0.00 0.00 0.00 90 1014.2
20260903061552 23 120 0.0 6.4 0.00 0.00 0.00 89 1014.4
20260903054618 24 119 0.0 0.0 0.00 0.00 0.00 88 1015.0
20260903053118 24 103 0.0 6.4 0.00 0.00 0.00 88 1015.0
20260903051603 23 129 0.0 4.8 0.00 0.00 0.00 89 1014.9
20260903050129 23 130 0.0 0.0 0.00 0.00 0.00 90 1015.0
20260903044607 23 182 0.0 0.0 0.00 0.00 0.00 91 1015.3
20260903043103 23 20 0.0 0.0 0.00 0.00 0.00 91 1015.4
20260903040039 23 20 0.0 6.4 0.00 0.00 0.00 90 1015.1
20260903034545 23 43 4.8 8.0 0.00 0.00 0.00 90 1014.9
20260903033043 24 29 0.0 0.0 0.00 0.00 0.00 90 1014.8
20260903031542 24 32 0.0 0.0 0.00 0.00 0.00 89 1014.7
20260903030045 24 355 0.0 0.0 0.00 0.00 0.00 87 1014.7
20260903024547 25 275 0.0 8.0 0.00 0.00 0.00 87 1014.6
20260903023043 25 273 0.0 4.8 0.00 0.00 0.00 86 1014.7
20260903021553 25 273 0.0 0.0 0.00 0.00 0.00 85 1014.7
20260903020037 25 267 3.2 9.7 0.00 0.00 0.00 85 1014.9
20260903014544 25 286 3.2 12.9 0.00 0.00 0.00 84 1015.1
20260903013043 25 254 1.6 6.4 0.00 0.00 0.00 83 1015.2